EHI
0 0 0 0 0 0 0 0 0 0 0 0 0 0 0 0 0 0 0 0 0 0 0 0 0 0 0 0 0 0 0 0 0 0 0 0 0 0
0 0 0 0 0 0 0 0 0 0 0 0 0 0 0 0 0 0 0 0 0 0 0 0 0 0 0 0 0 0 0 0 0 0 0 0 0 0
0 0 0 0 0 0 0 0 0 0 0 0 0 0 0 0 0 0 0 0 0 0 0 0 0 0 0 0 0 0 0 0 0 0 0 0 0 0
0 0 0 0 0 0 0 0 0 0 0 0 0 0 0 0 0 0 0 0 0 0 0 0 0 0 0 0 0 0 0 0 0 0 0 0 0 0
0 0 0 0 0 0 0 0 0 0 0 0 0 0 0 0 0 0 0 0 0 0 0 0 0 0 0 0 0 0 0 0 0 0 0 0 0 0
0 0 0 0 0 0 0 0 0 0 0 0 0 0 0 0 0 0 0 0 0 0 0 0 0 0 0 0 0 0 0 0 0 0 0 0 0 0
0 0 0 0 0 0 0 0 0 0 0 0 0 0 0 0 0 0 0 0 0 0 0 0 0 0 0 0 0 0 0 0 0 0 0 0 0 0
0 0 0 0 0 0 0 0 0 0 0 0 0 0 0 0 0 0 0 0 0 0 0 0 0 0 0 0 0 0 0 0 0 0 0 0 0 0
0 0 0 0 0 0 0 0 0 0 0 0 0 0 0 0 0 0 0 0 0 0 0 0 0 0 0 0 0 0 0 0 0 0 0 0 0 0
0 0 0 0 0 0 0 0 0 0 0 0 0 0 0 0 0 0 0 0 0 0 0 0 0 0 0 0 0 0 0 0 0 0 0 0 0 0
0 0 0 0 0 0 0 0 0 0 0 0 0 0 0 0 0 0 0 0 0 0 0 0 0 0 0 0 0 0 0 0 0 0 0 0 0 0
0 0 0 0 0 0 0 0 0 0 0 0 0 0 0 0 0 0 0 0 0 0 0 0 0 0 0 0 0 0 0 0 0 0 0 0 0 0
0 0 0 0 0 0 0 0 0 0 0 0 0 0 0 0 0 0 0 0 0 0 0 0 0 0 0 0 0 0 0 0 0 0 0 0 0 0
0 0 0 0 0 0 0 0 0 0 0 0 0 0 0 0 0 0 0 0 0 0 0 0 0 0 0 0 0 0 0 0 0 0 0 0 0 0
0 0 0 0 0 0 0 0 0 0 0 0 0 0 0 0 0 0 0 0 0 0 0 0 0 0 0 0 0 0 0 0 0 0 0 0 0 0
0 0 0 0 0 0 0 0 0 0 0 0 0 0 0 0 0 0 0 0 0 0 0 0 0 0 0 0 0 0 0 0 0 0 0 0 0 0
0 0 0 0 0 0 0 0 0 0 0 0 0 0 0 0 0 0 0 0 0 0 0 0 0 0 0 0 0 0 0 0 0 0 0 0 0 0
0 0 0 0 0 0 0 0 0 0 0 0 0 0 0 0 0 0 0 0 0 0 0 0 0 0 0 0 0 0 0 0 0 0 0 0 0 0
0 0 0 0 0 0 0 0 0 0 0 0 0 0 0 0 0 0 0 0 0 0 0 0 0 0 0 0 0 0 0 0 0 0 0 0 0 0
0 0 0 0 0 0 0 0 0 0 0 0 0 0 0 0 0 0 0 0 0 0 0 0 0 0 0 0 0 0 0 0 0 0 0 0 0 0
0 0 0 0 0 0 0 0 0 0 0 0 0 0 0 0 0 0 0 0 0 0 0 0 0 0 0 0 0 0 0 0 0 0 0 0 0 0
0 0 0 0 0 0 0 0 0 0 0 0 0 0 0 0 0 0 0 0 0 0 0 0 0 0 0 0 0 0 0 0 0 0 0 0 0 0
0 0 0 0 0 0 0 0 0 0 0 0 0 0 0 0 0 0 0 0 0 0 0 0 0 0 0 0 0 0 0 0 0 0 0 0 0 0
Wind_Speed
2 2 1 1 1 1 2 3 4 1 2 3 2 2 1 2 4 3 4 7 9 9 9 9 9 8 8 7 7 7 7 7 8 8 8 9 10 11
2 2 2 1 0 1 1 2 3 4 2 3 3 3 2 2 5 4 5 8 10 10 11 11 11 11 10 10 9 8 8 8 8 8 8 9 9 10
3 3 3 2 1 1 1 1 2 3 3 3 2 2 2 3 3 3 4 5 5 10 12 12 13 13 12 12 11 10 10 10 10 10 10 9 10 10
5 4 4 3 3 2 2 2 2 3 3 4 3 2 4 4 4 4 4 5 5 9 11 12 13 13 13 13 13 12 12 11 11 11 11 11 11 11
6 6 6 5 5 4 4 3 3 3 3 3 4 3 3 3 3 4 4 4 5 7 9 10 11 12 13 13 14 14 13 13 13 12 12 12 12 12
6 6 7 7 7 6 5 5 4 3 3 3 4 3 3 3 2 3 4 3 4 4 5 5 7 9 11 12 13 14 14 14 14 14 14 13 13 13
6 6 7 9 10 8 6 5 5 4 4 4 4 3 4 3 3 3 4 4 4 3 3 4 3 3 5 8 11 13 14 15 15 15 15 15 15 14
6 6 6 8 10 12 12 11 9 7 6 5 5 6 7 5 4 4 3 3 4 3 2 4 3 4 5 5 9 13 14 14 15 15 15 15 16 15
7 6 6 6 7 6 8 11 11 13 13 8 8 9 8 7 5 5 5 6 7 4 2 5 4 6 6 7 12 14 14 14 15 15 15 15 16 16
7 7 6 6 5 5 5 6 7 8 10 9 9 10 9 8 7 8 8 6 6 5 4 5 5 6 7 6 11 15 15 15 15 15 15 15 16 16
6 5 6 6 7 7 4 6 7 8 9 12 13 13 15 14 10 4 5 5 7 6 5 5 5 5 5 6 9 14 15 15 15 15 15 15 15 14
4 4 7 7 7 6 5 5 8 8 6 7 8 10 11 12 14 10 8 8 7 6 5 5 5 4 4 5 6 6 7 11 13 14 14 15 14 7
3 3 3 5 7 8 7 7 11 9 6 6 7 7 7 7 8 9 9 9 9 9 6 5 5 5 5 5 4 4 5 5 5 7 11 14 13 10
4 3 3 5 7 8 7 9 12 9 5 5 6 7 7 8 8 8 10 11 11 12 10 8 6 6 6 6 6 4 5 5 6 6 6 8 11 13
3 4 5 7 8 6 9 11 8 5 4 5 7 8 8 8 7 6 7 9 10 12 11 10 9 8 7 8 8 6 5 5 6 7 6 6 6 5
3 4 6 7 7 7 7 6 4 4 4 6 7 7 6 5 6 6 7 6 7 8 9 10 11 11 10 10 9 8 7 6 5 6 6 6 5 6
1 1 1 2 3 3 4 4 4 4 4 5 6 7 6 6 7 6 6 6 7 8 8 6 8 9 11 9 8 10 9 8 8 7 6 7 8 8
1 1 2 3 3 4 4 4 4 4 5 5 6 6 6 7 7 6 5 6 8 8 8 6 4 4 4 7 12 11 9 9 8 7 7 7 9 7
0 2 3 3 4 4 4 4 5 5 4 5 5 6 6 6 6 7 6 6 7 8 8 6 5 5 8 9 7 12 10 8 7 7 7 8 9 9
1 2 3 4 4 4 4 4 5 5 4 4 5 5 5 6 6 7 6 7 7 7 7 6 6 7 9 9 7 6 12 10 8 8 8 7 7 9
2 3 3 4 4 4 4 4 4 4 5 5 5 6 5 6 6 6 6 8 8 6 7 7 7 10 6 4 5 6 6 11 12 8 6 6 6 5
3 3 3 4 4 4 4 4 4 4 5 5 5 5 5 5 6 7 7 7 6 7 8 7 6 5 4 6 8 8 7 6 9 15 15 12 7 7
3 4 4 4 4 4 4 5 5 5 5 5 5 5 6 6 6 7 7 7 7 7 7 6 5 4 5 6 7 7 8 8 5 5 8 13 17 18
Wind_Direction
175 171 167 205 164 158 153 149 146 157 282 287 294 283 249 229 227 212 227 238 238 243 248 252 255 256 256 255 255 257 259 259 258 254 252 251 250 250
188 177 192 212 192 158 156 152 149 156 213 262 259 266 254 240 228 224 236 244 245 247 249 252 255 256 255 254 253 252 252 252 253 253 252 251 250 252
208 195 211 204 202 215 185 160 162 153 200 269 269 274 262 261 264 251 249 246 252 252 252 253 254 254 253 252 251 251 251 250 249 249 248 248 249 250
215 208 220 210 213 224 213 211 206 190 189 243 275 276 261 255 254 258 255 247 245 256 256 257 256 254 252 250 249 248 248 249 249 249 248 247 248 250
210 208 214 205 216 220 216 216 220 215 195 215 256 261 268 268 273 275 269 267 263 261 259 258 257 256 253 251 248 247 246 246 248 249 249 249 249 250
215 214 214 208 213 216 219 219 217 219 215 224 250 261 264 271 256 266 283 273 269 273 273 268 264 264 261 257 254 251 249 246 245 245 246 247 248 249
223 222 222 219 217 214 215 213 211 219 224 230 246 258 260 260 250 242 254 271 273 255 269 273 270 271 271 265 260 255 251 248 245 243 242 243 244 246
226 230 235 233 233 230 231 223 209 212 221 225 236 240 250 241 239 235 238 258 277 257 227 263 247 260 259 252 254 255 254 251 248 245 242 241 241 242
223 226 239 239 231 233 241 242 236 232 224 222 233 241 244 236 227 238 233 230 241 239 209 263 252 257 257 258 255 254 254 253 251 248 244 242 240 240
221 219 224 240 237 228 238 249 250 246 238 233 235 244 244 239 224 231 238 245 254 249 203 248 256 251 260 256 258 255 254 252 250 249 246 243 241 240
231 226 222 229 242 235 232 250 262 265 258 246 241 245 249 248 238 236 240 241 259 257 207 219 250 256 257 256 256 251 251 252 250 248 247 245 244 242
242 241 236 238 251 244 230 241 257 264 266 274 263 259 254 254 244 230 230 236 247 256 226 208 238 237 267 258 251 248 248 250 249 247 246 245 243 232
237 243 246 252 256 256 247 239 249 258 261 257 262 263 258 252 245 234 227 228 236 243 226 200 224 218 225 257 264 244 233 239 243 247 246 245 240 216
234 245 250 264 271 270 259 255 262 268 257 255 259 261 259 257 253 243 235 233 235 242 242 214 222 225 232 245 255 256 243 236 231 239 241 246 244 231
243 259 276 282 287 282 269 269 271 259 251 254 258 260 258 259 259 256 252 246 246 246 247 232 230 236 229 239 247 244 249 246 228 234 238 232 231 220
275 288 292 286 278 273 279 278 259 245 246 255 263 267 269 268 264 260 261 258 257 260 248 238 234 232 238 240 242 248 240 237 234 228 232 237 232 221
286 308 304 299 295 289 285 279 273 270 264 263 266 271 272 269 268 262 257 258 255 262 265 252 238 232 232 233 239 242 244 243 240 235 228 243 243 231
88 301 287 283 281 284 288 290 284 276 271 271 270 268 269 271 273 269 258 254 258 259 260 257 248 250 255 248 227 238 241 243 241 229 220 234 251 243
37 293 289 287 286 287 285 283 285 285 285 283 279 279 278 277 273 271 266 261 260 259 258 252 237 231 250 263 250 220 229 241 238 234 227 226 241 246
301 284 287 289 289 290 288 285 285 290 291 289 287 286 285 284 282 278 271 264 266 266 264 254 239 233 239 253 261 246 220 225 233 239 239 235 242 251
307 297 295 296 296 292 289 289 290 290 292 292 291 290 291 290 285 281 278 275 269 265 264 261 252 246 248 248 258 258 244 226 224 226 227 230 239 240
305 302 302 302 301 301 302 302 303 301 301 296 294 294 292 288 288 287 285 284 278 269 267 269 268 257 234 238 251 260 264 259 243 238 233 221 212 219
295 295 295 296 296 297 298 299 301 298 297 297 298 298 297 295 290 286 285 283 280 277 274 275 274 258 248 244 251 257 261 263 257 253 252 241 234 239